[[{"header":{"parameterUnit":"m.s-1","parameterCategory":1,"la1":30.2991,"la2":30.254,"lo1":-89.0895,"lo2":-89.0444,"dy":0.0017,"dx":0.0017,"nx":28,"ny":28,"refTime":"2024-12-04T09:00:00:Z","depth":0,"parameterNumber":2,"parameterNumberName":"U-component_of_WINDS"},"data":[0,0,0,0,0,0,0,0,0,0,0,0,0,0,0,0,0,0,0,0,0,0,0,0,0,0,0,0,0,0,0,0,0,0,0,0,0,0,0,0,0,0,0,0,0,0,0,0,0,0,0,0,0,0,0,0,0,0,-2.1222,-2.1222,0,-2.1261,-2.1261,-2.1262,-2.1186,-2.1183,-2.1181,-2.1178,-2.1219,-2.1223,-2.1226,0,0,0,0,0,0,0,0,0,0,0,0,0,-2.1081,-2.1084,-2.1222,-2.1222,-2.1223,-2.1261,-2.1261,-2.1262,-2.1186,-2.1183,-2.118,-2.1177,-2.1218,-2.1222,-2.1226,0,0,0,0,0,0,0,0,0,0,0,0,0,-2.1133,-2.1085,-2.1221,-2.1189,-2.1187,-2.1261,-2.1261,-2.1262,-2.1187,-2.1183,-2.1179,-2.1176,-2.1217,-2.1222,-2.1227,-2.1334,0,0,-2.1243,-2.1245,0,0,0,0,0,0,0,0,-2.113,-2.1139,-2.1194,-2.1192,-2.1189,-2.1214,-2.1227,-2.1286,-2.1188,-2.1187,-2.1178,-2.1174,-2.1221,-2.1225,-2.1241,-2.1336,-2.1338,-2.1243,-2.1246,-2.1249,-2.125,0,0,0,0,0,0,0,-2.1127,-2.1136,-2.1237,-2.1194,-2.1192,-2.1173,-2.1176,-2.1238,-2.1225,-2.1187,-2.1181,-2.1187,-2.1219,-2.1236,-2.1242,-2.1338,-2.1243,-2.1248,-2.1251,-2.1253,-2.1522,-2.1526,0,0,0,0,0,0,-2.1127,-2.1134,-2.1236,-2.1238,-2.115,-2.1178,-2.1182,-2.121,-2.1224,-2.1222,-2.119,-2.1183,-2.1229,-2.1236,-2.1243,-2.1369,-2.1249,-2.1253,-2.1256,-2.1518,-2.1523,-2.1527,0,0,0,0,0,0,-2.1125,-2.1137,-2.1234,-2.1185,-2.1196,-2.1185,-2.1217,-2.1213,-2.123,-2.1226,-2.1223,-2.121,-2.1227,-2.1235,-2.1312,-2.1369,-2.1256,-2.126,-2.1513,-2.1519,-2.1525,-2.1622,0,0,0,0,0,0,-2.1121,-2.1137,-2.1177,-2.1186,-2.1198,-2.1303,-2.122,-2.1216,-2.1239,-2.1231,-2.1244,-2.1243,-2.1224,-2.1304,-2.1317,-2.1374,-2.1264,-2.1508,-2.1516,-2.1523,-2.1614,-2.1631,-2.1646,0,0,0,0,0,-2.1116,-2.1204,-2.118,-2.1193,-2.1249,-2.1307,-2.1314,-2.129,-2.1244,-2.1285,-2.1282,-2.1243,-2.136,-2.1313,-2.1326,-2.1386,-2.1504,-2.1514,-2.1523,-2.1607,-2.1628,-2.1645,0,0,0,0,0,0,-2.1203,-2.1204,-2.1178,-2.1271,-2.1289,-2.1294,-2.1345,-2.1313,-2.1345,-2.1336,-2.1305,-2.1309,-2.1391,-2.1396,-2.1343,-2.149,-2.1425,-2.1437,-2.1484,-2.1504,-2.1519,-2.1517,-2.1269,0,0,0,0,0,-2.1233,-2.1279,-2.1278,-2.136,-2.137,-2.1356,-2.138,-2.136,-2.1378,-2.1385,-2.1388,-2.1407,-2.1448,-2.1476,-2.1513,-2.1613,-2.1615,-2.1661,-2.1677,-2.169,-2.1701,-2.1754,-2.1774,-2.1557,-2.1557,-2.1557,0,0,-2.1295,-2.1302,-2.1333,-2.1377,-2.1389,-2.1438,-2.1363,-2.1418,-2.1454,-2.1394,-2.1466,-2.1468,-2.1487,-2.1576,-2.1615,-2.1582,-2.1761,-2.1701,-2.1712,-2.1716,-2.1766,-2.1786,-2.1805,-2.1563,-2.1562,-2.1561,0,0,-2.1434,-2.1443,-2.1513,-2.1526,-2.1544,-2.1534,-2.155,-2.1559,-2.1559,-2.163,-2.1586,-2.1628,-2.1699,-2.1714,-2.1731,-2.1874,-2.1839,-2.1887,-2.197,-2.2022,-2.2039,-2.2054,-2.2106,-2.2124,-2.1898,-2.1898,-2.1898,0,-2.151,-2.1581,-2.1553,-2.161,-2.1631,-2.1578,-2.1648,-2.1661,-2.1691,-2.1707,-2.1669,-2.1757,-2.1766,-2.1858,-2.1892,-2.1907,-2.1926,-2.1886,-2.2039,-2.2054,-2.2067,-2.2116,-2.2135,-2.1904,-2.1903,-2.1903,-2.1902,0,-2.1673,-2.1724,-2.1777,-2.1807,-2.1833,-2.1897,-2.1878,-2.1908,-2.1885,-2.1878,-2.1952,-2.196,-2.1998,-2.2018,-2.1996,-2.2106,-2.2085,-2.2044,-2.1978,-2.2094,-2.2139,-2.2158,-2.1912,-2.191,-2.1908,-2.1907,0,0,-2.1871,-2.1882,-2.1902,-2.1915,-2.193,-2.1969,-2.2029,-2.2066,-2.2092,-2.2114,-2.2164,-2.2225,-2.2186,-2.2206,-2.2185,-2.223,-2.2343,-2.2183,-2.2183,-2.2213,-2.2464,-2.2496,-2.2518,-2.2319,-2.2322,-2.2325,-2.2463,0,-2.2009,-2.2114,-2.2089,-2.2192,-2.2238,-2.2186,-2.2239,-2.2254,-2.2249,-2.2287,-2.2281,-2.2325,-2.227,-2.2282,-2.2324,-2.232,-2.2393,-2.231,-2.2366,-2.2368,-2.2364,-2.2542,-2.2576,-2.2706,-2.248,-2.2483,-2.2485,0,-2.2185,-2.2213,-2.2321,-2.2328,-2.2346,-2.2394,-2.2425,-2.2462,-2.2477,-2.247,-2.2491,-2.2461,-2.252,-2.2452,-2.2534,-2.2478,-2.2498,-2.25,-2.2504,-2.251,-2.2435,-2.2554,-2.2747,-2.2767,-2.2513,-2.2511,-2.2509,0,-2.2319,-2.2384,-2.2456,-2.2468,-2.2478,-2.2513,-2.2518,-2.253,-2.2553,-2.258,-2.2595,-2.2628,-2.2647,-2.2673,-2.2653,-2.2605,-2.2738,-2.2668,-2.2734,-2.2735,-2.2766,-2.2765,-2.2967,-2.2777,-2.2777,-2.2777,-2.2776,0,-2.2477,-2.2546,-2.2517,-2.2562,-2.2636,-2.2606,-2.2681,-2.268,-2.2691,-2.2734,-2.2691,-2.2733,-2.2703,-2.2742,-2.2726,-2.2796,-2.2804,-2.2801,-2.2796,-2.2805,-2.2806,-2.282,-2.2811,-2.2782,-2.2781,-2.278,-2.2779,0,-2.2641,-2.2624,-2.27,-2.2702,-2.2704,-2.2759,-2.2761,-2.2803,-2.2793,-2.2849,-2.286,-2.2846,-2.289,-2.2871,-2.2918,-2.2907,-2.2997,-2.2979,-2.2992,-2.2988,-2.3055,-2.3049,-2.3275,-2.3303,-2.3094,-2.3096,-2.3098,0,-2.2744,-2.2795,-2.2802,-2.2828,-2.2837,-2.2879,-2.2902,-2.2874,-2.29,-2.292,-2.2959,-2.2999,-2.303,-2.3102,-2.3096,-2.313,-2.3114,-2.319,-2.3119,-2.3127,-2.3116,-2.3114,-2.3119,-2.3206,-2.3208,-2.321,-2.3212,0,-2.2929,-2.2917,-2.2952,-2.2984,-2.3013,-2.3037,-2.3057,-2.3081,-2.3053,-2.3084,-2.3128,-2.3151,-2.3198,-2.3238,-2.3268,-2.3273,-2.3239,-2.3234,-2.3251,-2.3262,-2.3268,-2.3266,-2.3032,-2.3229,-2.3227,-2.3226,-2.3225,-2.3225,-2.3066,-2.3108,-2.312,-2.316,-2.3172,-2.3191,-2.323,-2.3225,-2.3261,-2.3297,-2.3277,-2.3329,-2.3341,-2.3378,-2.3388,-2.3427,-2.3397,-2.3422,-2.3429,-2.3436,-2.3445,-2.326,-2.3433,-2.3432,-2.3432,-2.3431,-2.3431,0,-2.3249,-2.3253,-2.329,-2.3319,-2.3351,-2.3313,-2.3333,-2.3362,-2.3408,-2.3422,-2.3452,-2.3503,-2.3541,-2.3537,-2.3571,-2.3604,-2.3588,-2.3614,-2.3612,-2.3614,-2.3469,-2.3452,-2.3626,-2.3626,-2.3626,-2.3626,-2.3626,-2.3625,-2.3348,-2.3419,-2.3408,-2.3484,-2.3487,-2.3537,-2.3552,-2.3569,-2.358,-2.3638,-2.367,-2.3666,-2.3673,-2.3708,-2.3741,-2.3738,-2.3754,-2.3786,-2.3778,-2.3643,-2.3624,-2.3606,-2.3589,-2.3789,-2.3789,-2.3919,-2.392,-2.3921]},{"header":{"parameterUnit":"m.s-1","parameterCategory":1,"la1":30.2991,"la2":30.254,"lo1":-89.0895,"lo2":-89.0444,"dy":0.0017,"dx":0.0017,"nx":28,"ny":28,"refTime":"2024-12-04T09:00:00:Z","depth":0,"parameterNumber":3,"parameterNumberName":"V-component_of_WINDS"},"data":[0,0,0,0,0,0,0,0,0,0,0,0,0,0,0,0,0,0,0,0,0,0,0,0,0,0,0,0,0,0,0,0,0,0,0,0,0,0,0,0,0,0,0,0,0,0,0,0,0,0,0,0,0,0,0,0,0,0,-7.3877,-7.3878,0,-7.3981,-7.3982,-7.3983,-7.3891,-7.3887,-7.3883,-7.388,-7.3981,-7.3987,-7.3993,0,0,0,0,0,0,0,0,0,0,0,0,0,-7.3591,-7.3597,-7.3877,-7.3878,-7.3879,-7.3981,-7.3982,-7.3984,-7.3891,-7.3887,-7.3882,-7.3878,-7.3979,-7.3986,-7.3993,0,0,0,0,0,0,0,0,0,0,0,0,0,-7.3707,-7.3599,-7.3877,-7.3846,-7.3844,-7.3981,-7.3982,-7.3984,-7.3892,-7.3887,-7.3881,-7.3876,-7.3976,-7.3985,-7.3994,-7.4165,0,0,-7.4023,-7.4027,0,0,0,0,0,0,0,0,-7.3701,-7.3718,-7.3849,-7.3848,-7.3846,-7.3917,-7.3919,-7.4045,-7.3894,-7.3874,-7.388,-7.3873,-7.3964,-7.3974,-7.4006,-7.417,-7.4174,-7.4024,-7.4029,-7.4033,-7.4036,0,0,0,0,0,0,0,-7.3693,-7.3713,-7.3918,-7.3851,-7.3849,-7.3824,-7.3835,-7.3942,-7.3949,-7.3875,-7.3869,-7.3883,-7.3962,-7.3997,-7.4007,-7.4176,-7.4023,-7.4032,-7.4037,-7.4041,-7.4483,-7.4489,0,0,0,0,0,0,-7.3689,-7.3707,-7.3914,-7.3921,-7.3758,-7.3834,-7.3846,-7.39,-7.3948,-7.395,-7.3887,-7.3878,-7.3984,-7.3996,-7.401,-7.4212,-7.4033,-7.4042,-7.4047,-7.4477,-7.4484,-7.4491,0,0,0,0,0,0,-7.3683,-7.3708,-7.391,-7.3812,-7.3836,-7.3845,-7.3907,-7.3905,-7.394,-7.3957,-7.3957,-7.3922,-7.398,-7.3997,-7.4127,-7.4215,-7.4046,-7.4055,-7.447,-7.4479,-7.4488,-7.4618,0,0,0,0,0,0,-7.3675,-7.3707,-7.3773,-7.3815,-7.3842,-7.4028,-7.3913,-7.3911,-7.3957,-7.3946,-7.399,-7.3991,-7.3977,-7.4114,-7.4137,-7.4224,-7.4062,-7.4462,-7.4474,-7.4485,-7.4606,-7.4631,-7.4652,0,0,0,0,0,-7.3666,-7.3805,-7.3777,-7.3803,-7.3925,-7.4033,-7.4048,-7.403,-7.3965,-7.403,-7.4041,-7.399,-7.4202,-7.4128,-7.4153,-7.4245,-7.4456,-7.4471,-7.4484,-7.4596,-7.4626,-7.4651,0,0,0,0,0,0,-7.3772,-7.381,-7.378,-7.3937,-7.3983,-7.4017,-7.41,-7.4063,-7.4127,-7.4113,-7.4086,-7.4097,-7.4234,-7.4252,-7.417,-7.4411,-7.4318,-7.4337,-7.4395,-7.4423,-7.4446,-7.4438,-7.407,0,0,0,0,0,-7.3814,-7.3901,-7.3928,-7.4064,-7.4089,-7.4091,-7.4137,-7.4119,-7.4165,-7.4183,-7.4203,-7.4248,-7.4324,-7.4374,-7.4446,-7.4608,-7.4616,-7.4684,-7.4706,-7.4725,-7.4742,-7.4828,-7.4858,-7.4537,-7.4536,-7.4536,0,0,-7.3902,-7.3933,-7.3989,-7.4087,-7.412,-7.4208,-7.4108,-7.4205,-7.427,-7.4197,-7.4322,-7.4338,-7.4385,-7.4533,-7.4598,-7.4552,-7.4832,-7.4743,-7.4758,-7.4764,-7.4845,-7.4876,-7.4903,-7.4546,-7.4544,-7.4543,0,0,-7.4106,-7.4139,-7.4256,-7.4292,-7.4344,-7.4344,-7.4372,-7.4413,-7.4421,-7.4546,-7.4493,-7.4568,-7.4701,-7.4736,-7.4772,-7.4989,-7.4944,-7.5013,-7.5132,-7.5216,-7.5241,-7.5264,-7.534,-7.5368,-7.503,-7.503,-7.503,0,-7.4207,-7.434,-7.432,-7.4422,-7.4465,-7.4406,-7.4522,-7.4557,-7.4629,-7.466,-7.4607,-7.4772,-7.4799,-7.4953,-7.5007,-7.5038,-7.5067,-7.5007,-7.524,-7.5262,-7.5282,-7.5355,-7.5384,-7.5038,-7.5037,-7.5036,-7.5035,0,-7.4462,-7.4554,-7.4642,-7.4715,-7.4769,-7.4877,-7.4872,-7.4928,-7.4905,-7.491,-7.5037,-7.5068,-7.5144,-7.5179,-7.5157,-7.533,-7.5299,-7.5244,-7.5149,-7.5321,-7.5389,-7.5417,-7.5049,-7.5046,-7.5044,-7.5042,0,0,-7.4736,-7.4797,-7.483,-7.4862,-7.4915,-7.4985,-7.509,-7.5166,-7.5214,-7.5265,-7.5351,-7.5465,-7.5414,-7.5454,-7.5435,-7.5509,-7.5678,-7.5444,-7.5445,-7.5486,-7.5868,-7.5909,-7.5942,-7.5649,-7.5654,-7.5658,-7.5864,0,-7.4942,-7.5127,-7.5111,-7.5285,-7.537,-7.5314,-7.5404,-7.5446,-7.5453,-7.5524,-7.553,-7.5611,-7.5538,-7.5562,-7.5633,-7.5643,-7.5754,-7.5627,-7.5726,-7.573,-7.5716,-7.5977,-7.6021,-7.6214,-7.589,-7.5895,-7.5898,0,-7.5207,-7.5269,-7.5453,-7.5492,-7.5527,-7.561,-7.5677,-7.5747,-7.5791,-7.5791,-7.5836,-7.5805,-7.5908,-7.5812,-7.5953,-7.5867,-7.5906,-7.5917,-7.5924,-7.5932,-7.5824,-7.5991,-7.6275,-7.6304,-7.594,-7.5936,-7.5933,0,-7.5388,-7.5517,-7.5644,-7.5673,-7.5723,-7.5782,-7.5805,-7.5844,-7.589,-7.5949,-7.5978,-7.6047,-7.6085,-7.6138,-7.6126,-7.6057,-7.6269,-7.6172,-7.627,-7.6271,-7.6317,-7.6314,-7.661,-7.6344,-7.6343,-7.6343,-7.6342,0,-7.5619,-7.5732,-7.5726,-7.5803,-7.5928,-7.5908,-7.6032,-7.6047,-7.6083,-7.6161,-7.6115,-7.6189,-7.6168,-7.624,-7.623,-7.6347,-7.6365,-7.6366,-7.6362,-7.637,-7.637,-7.6395,-7.6381,-7.635,-7.6349,-7.6347,-7.6346,0,-7.5842,-7.5842,-7.5976,-7.6012,-7.6024,-7.6114,-7.6144,-7.6216,-7.6219,-7.6318,-7.634,-7.6345,-7.6428,-7.642,-7.6512,-7.6505,-7.665,-7.6631,-7.6636,-7.6632,-7.673,-7.672,-7.7052,-7.7094,-7.6801,-7.6804,-7.6806,0,-7.5989,-7.6076,-7.6122,-7.6172,-7.6199,-7.628,-7.6327,-7.631,-7.6361,-7.6418,-7.6483,-7.6561,-7.6623,-7.6757,-7.6767,-7.6837,-7.6818,-7.6929,-7.6828,-7.6833,-7.6818,-7.6813,-7.6821,-7.6949,-7.6952,-7.6955,-7.6957,0,-7.625,-7.6246,-7.6317,-7.6389,-7.6447,-7.6502,-7.6552,-7.6595,-7.6582,-7.6641,-7.6726,-7.6774,-7.6868,-7.6946,-7.7012,-7.7033,-7.6993,-7.6989,-7.7015,-7.7024,-7.7023,-7.7024,-7.669,-7.6981,-7.6979,-7.6977,-7.6976,-7.6975,-7.6439,-7.6513,-7.6557,-7.6637,-7.6674,-7.6721,-7.6791,-7.6803,-7.6874,-7.6951,-7.6936,-7.7031,-7.7071,-7.7156,-7.7183,-7.7256,-7.7215,-7.7253,-7.7263,-7.7272,-7.7284,-7.7013,-7.7268,-7.7267,-7.7266,-7.7266,-7.7265,0,-7.6697,-7.6722,-7.6797,-7.6869,-7.6932,-7.6891,-7.6943,-7.6998,-7.7083,-7.7125,-7.7187,-7.7283,-7.7359,-7.7375,-7.7446,-7.7501,-7.7484,-7.752,-7.7515,-7.7521,-7.7316,-7.7286,-7.7532,-7.7532,-7.7532,-7.7532,-7.7532,-7.7532,-7.6838,-7.6961,-7.6962,-7.7101,-7.7125,-7.7219,-7.7253,-7.7296,-7.7329,-7.744,-7.7503,-7.7514,-7.7545,-7.7618,-7.7684,-7.7687,-7.7715,-7.7758,-7.7753,-7.7562,-7.7535,-7.751,-7.7481,-7.7764,-7.7765,-7.7951,-7.7953,-7.7955]}]]